Weather History for EHRD - May, 2012

Change the Weather History Date:

Thursday, May 10, 2012

  Actual Average Record
Temperature  
Mean Temperature 64 °F -  
Max Temperature 69 °F 63 °F 80 °F (1998)
Min Temperature 60 °F 48 °F 37 °F (2005)
Growing Degree Days 14 (Base 50)    
Moisture  
Dew Point 60 °F    
Average Humidity 87    
Maximum Humidity 94    
Minimum Humidity 74    
Precipitation  
Precipitation 0.12 in - - ()
Sea Level Pressure  
Sea Level Pressure 29.90 in    
Wind  
Wind Speed 12 mph ()    
Max Wind Speed 20 mph    
Max Gust Speed 32 mph    
Visibility 7.1 miles    
Events Rain , Thunderstorm    
Averages and records for this station are not official NWS values.
T = Trace of Precipitation, MM = Missing Value Source: Averaged Metar Reports

Daily Weather History Graph

Daily Weather History Graph

Search for Another Location

Airport or City:

Trip Planner

Search our weather history database for the weather conditions in past years. The results will help you decide how hot, cold, wet, or windy it might be!

Date:

Astronomy

May. 10, 2012 Rise Set
Actual Time 5:56 AM CEST 9:22 PM CEST
Civil Twilight 5:15 AM CEST 10:03 PM CEST
Nautical Twilight 4:20 AM CEST 10:59 PM CEST
Astronomical Twilight 3:02 AM CEST 12:18 AM CEST
Moon 1:13 AM CEST (5/10) 9:59 AM CEST (5/10)
Length of Visible Light 16h 48m
Length of Day
15h 26m
Waning Gibbous, 76% of the Moon is Illuminated
May 10
Waning Gibbous
May 12
Last Quarter
May 21
New
May 28
First Quarter
Jun 4
Full

Hourly Weather History & Observations

Time (CEST) Temp. Dew Point Humidity Pressure Visibility Wind Dir Wind Speed Gust Speed Precip Events Conditions
12:25 AM 60.8 °F 59.0 °F 94% 29.92 in 6.2 mi South 6.9 mph - N/A   Overcast
12:55 AM 60.8 °F 57.2 °F 88% 29.92 in 6.2 mi South 8.1 mph - N/A   Unknown
1:25 AM 60.8 °F 59.0 °F 94% 29.92 in 6.2 mi South 9.2 mph - N/A   Mostly Cloudy
1:55 AM 60.8 °F 59.0 °F 94% 29.92 in 6.2 mi South 9.2 mph - N/A   Partly Cloudy
2:00 AM 61 °F 58 °F 88% 29.93 in 10 mi South 11.2 mph - - Rain Light Drizzle
2:25 AM 60.8 °F 59.0 °F 94% 29.92 in 6.2 mi South 10.4 mph - N/A Rain Light Rain
2:55 AM 60.8 °F 57.2 °F 88% 29.92 in 6.2 mi South 10.4 mph - N/A   Partly Cloudy
3:25 AM 60.8 °F 57.2 °F 88% 29.89 in 6.2 mi South 10.4 mph - N/A   Partly Cloudy
3:55 AM 60.8 °F 57.2 °F 88% 29.89 in 6.2 mi South 11.5 mph - N/A   Partly Cloudy
4:25 AM 60.8 °F 57.2 °F 88% 29.89 in 6.2 mi South 12.7 mph - N/A   Light Drizzle
4:55 AM 60.8 °F 57.2 °F 88% 29.89 in 5.6 mi South 15.0 mph - N/A Rain Light Rain
5:00 AM 60 °F 58 °F 90% 29.91 in 6 mi South 13.4 mph - - Rain Light Rain Showers
5:25 AM 60.8 °F 59.0 °F 94% 29.89 in 6.2 mi South 15.0 mph - N/A Rain Light Rain
5:55 AM 60.8 °F 59.0 °F 94% 29.89 in 6.2 mi South 16.1 mph - N/A Rain Light Rain Showers
6:25 AM 60.8 °F 59.0 °F 94% 29.86 in 6.2 mi South 16.1 mph - N/A Rain Light Rain
6:55 AM 60.8 °F 59.0 °F 94% 29.86 in 6.2 mi South 17.3 mph - N/A Rain Light Rain
7:25 AM 60.8 °F 59.0 °F 94% 29.86 in 6.2 mi South 16.1 mph - N/A   Overcast
7:55 AM 62.6 °F 59.0 °F 88% 29.89 in 6.2 mi South 17.3 mph - N/A   Partly Cloudy
8:00 AM 62 °F 58 °F 84% 29.89 in 22 mi South 17.9 mph - - Rain Rain
8:25 AM 60.8 °F 59.0 °F 94% 29.89 in 6.2 mi South 17.3 mph - N/A Rain Light Rain Showers
8:55 AM 60.8 °F 59.0 °F 94% 29.86 in 6.2 mi South 13.8 mph - N/A Rain Light Rain
9:25 AM 60.8 °F 59.0 °F 94% 29.89 in 6.2 mi South 15.0 mph - N/A Rain Light Rain
9:55 AM 62.6 °F 60.8 °F 94% 29.89 in 6.2 mi South 13.8 mph - N/A Rain Light Rain
10:25 AM 62.6 °F 59.0 °F 88% 29.89 in 6.2 mi South 15.0 mph - N/A   Overcast
10:55 AM 64.4 °F 60.8 °F 88% 29.89 in 6.2 mi South 13.8 mph - N/A   Partly Cloudy
11:00 AM 66 °F 61 °F 78% 29.89 in 22 mi South 15.7 mph - - Rain Rain
11:25 AM 66.2 °F 60.8 °F 83% 29.89 in 6.2 mi SSW 17.3 mph - N/A   Overcast
11:55 AM 66.2 °F 60.8 °F 83% 29.89 in 6.2 mi SSW 18.4 mph - N/A   Overcast
12:25 PM 66.2 °F 60.8 °F 83% 29.89 in 6.2 mi SW 19.6 mph 32.2 mph N/A   Overcast
12:55 PM 68.0 °F 60.8 °F 78% 29.89 in 6.2 mi SW 16.1 mph - N/A   Overcast
1:25 PM 68.0 °F 60.8 °F 78% 29.89 in 6.2 mi SW 15.0 mph - N/A   Overcast
1:55 PM 66.2 °F 60.8 °F 83% 29.92 in 6.2 mi WSW 15.0 mph - N/A   Overcast
2:00 PM 69 °F 62 °F 74% 29.93 in 19 mi WSW 13.4 mph - -   Partly Cloudy
2:25 PM 68.0 °F 60.8 °F 78% 29.92 in 6.2 mi WSW 12.7 mph - N/A   Partly Cloudy
2:55 PM 66.2 °F 60.8 °F 83% 29.92 in 6.2 mi SW 12.7 mph - N/A Rain Light Rain
3:25 PM 66.2 °F 60.8 °F 83% 29.92 in 6.2 mi SW 10.4 mph - N/A   Unknown
3:55 PM 66.2 °F 60.8 °F 83% 29.92 in 6.2 mi SW 11.5 mph - N/A   Light Drizzle
4:25 PM 66.2 °F 62.6 °F 88% 29.92 in 6.2 mi WSW 9.2 mph - N/A   Mostly Cloudy
4:55 PM 69.8 °F 62.6 °F 78% 29.92 in 6.2 mi SSW 11.5 mph - N/A   Partly Cloudy
5:00 PM 68 °F 62 °F 77% 29.93 in 19 mi SW 8.9 mph - - Rain Rain
5:25 PM 68.0 °F 62.6 °F 83% 29.92 in 6.2 mi SSW 9.2 mph 21.9 mph N/A   Scattered Clouds
5:55 PM 66.2 °F 62.6 °F 88% 29.92 in 6.2 mi South 13.8 mph - N/A Rain Light Rain
6:25 PM 66.2 °F 64.4 °F 94% 29.89 in 6.2 mi South 12.7 mph - N/A Rain Light Rain
6:55 PM 68.0 °F 62.6 °F 83% 29.89 in 6.2 mi SSW 11.5 mph - N/A   Overcast
7:25 PM 68.0 °F 62.6 °F 83% 29.89 in 6.2 mi SSW 13.8 mph 25.3 mph N/A   Overcast
7:55 PM 68.0 °F 62.6 °F 83% 29.89 in 6.2 mi SSW 12.7 mph - N/A   Overcast
8:00 PM 68 °F 63 °F 79% 29.91 in 19 mi SSW 11.2 mph - -   Partly Cloudy
8:25 PM 68.0 °F 62.6 °F 83% 29.89 in 6.2 mi SSW 12.7 mph - N/A   Scattered Clouds
8:55 PM 68.0 °F 64.4 °F 88% 29.92 in 6.2 mi SSW 12.7 mph - N/A Rain Light Rain
9:25 PM 68.0 °F 64.4 °F 88% 29.92 in 6.2 mi SW 15.0 mph 26.5 mph N/A Thunderstorm Thunderstorm
9:55 PM 64.4 °F 62.6 °F 94% 29.92 in 6.2 mi West 11.5 mph - N/A   Mostly Cloudy
10:25 PM 66.2 °F 60.8 °F 83% 29.92 in 6.2 mi SW 19.6 mph - N/A   Unknown
10:55 PM 64.4 °F 60.8 °F 88% 29.92 in 6.2 mi SW 18.4 mph - N/A   Partly Cloudy
11:00 PM 64 °F 60 °F 82% 29.95 in 14 mi SW 15.7 mph - -   Overcast
11:25 PM 64.4 °F 59.0 °F 83% 29.95 in 6.2 mi WSW 17.3 mph - N/A   Scattered Clouds
11:55 PM 64.4 °F 59.0 °F 83% 29.95 in 6.2 mi WSW 18.4 mph - N/A   Scattered Clouds